Regional Weather Roundup
Issued by NWS

Home | Current Version | Previous Version | Graphics & Text | Print | Product List | Glossary On
Versions: 1 2 3 4 5 6 7 8 9 10 11 12 13 14 15 16 17 18 19 20 21 22 23 24 25 26 27
000
ASUS45 KTFX 200410
RWRMT
MONTANA REGIONAL WEATHER ROUNDUP
NATIONAL WEATHER SERVICE GREAT FALLS MT
1000 PM MDT THU APR 19 2018

NOTE: "FAIR" INDICATES FEW OR NO CLOUDS BELOW 12000 FEET WITH NO
SIGNIFICANT WEATHER AND/OR OBSTRUCTIONS TO VISIBILITY.

MTZ001>007-043-200500-
WEST OF THE DIVIDE

CITY           SKY/WX    TMP DP  RH WIND       PRES   REMARKS
KALISPELL      FAIR      45  30  55 S3        30.08R
MISSOULA       FAIR      49  26  41 NW6       30.08R
BUTTE          CLOUDY    47  22  37 NW5       30.08R
MULLAN PASS    FAIR      37  17  44 N6        30.13R
ANACONDA         N/A     45  21  39 NW6       30.08R
DEER LODGE       N/A     43  27  52 CALM      30.10R
HAMILTON         N/A     50  25  37 MISG      30.09R
RONAN            N/A     43  34  70 NE5       30.10R
$$

MTZ008-052>055-200500-
SOUTHWEST MONTANA

CITY           SKY/WX    TMP DP  RH WIND       PRES   REMARKS
BOZEMAN        MOCLDY    49  26  41 NE12      30.03R
DILLON         FAIR      43  26  51 NE6       30.03R
ENNIS          CLOUDY    45  27  49 E10G16    30.06R
W YELLOWSTONE  CLOUDY    37  23  56 N5        30.01R
THREE FORKS      N/A     54  26  34 NW6       30.03R
TWIN BRIDGES     N/A     47  25  42 N12       30.02R
$$

MTZ009-010-012-014-046-048-049-054-200500-
EAST SLOPES AND CENTRAL MONTANA

CITY           SKY/WX    TMP DP  RH WIND       PRES   REMARKS
CUT BANK       FAIR      41  32  70 SE7       30.09R
GREAT FALLS    MOCLDY    48  32  53 N10       30.06R
HELENA         MOCLDY    50  29  44 W9        30.06R
AUGUSTA        FAIR      37  29  71 NE6       30.09R
BOWMANS CRNR   FAIR      43  31  62 N7        30.07R
CHOTEAU          N/A     41  34  75 NE8       30.10S
FAIRFIELD      FAIR      44  32  62 NE12      30.07S
POWER          FAIR      41  35  78 N8        30.07S
RAYNESFORD     MOCLDY    51  30  46 E9        30.07R
ULM            FAIR      44  33  67 N8        30.07R
WHITE SULPHUR    N/A     41  27  56 NW5       30.05R
$$

MTZ011-013-016-021-045-047-050-051-200500-
NORTH CENTRAL MONTANA

CITY           SKY/WX    TMP DP  RH WIND       PRES   REMARKS
HAVRE          FAIR      47  36  65 E18       30.09S
LEWISTOWN      FAIR      48  32  53 E13       30.07S
N BAR RANCH    FAIR      45  32  61 E9        30.11S
CHINOOK          N/A     45  37  76 E7        30.13R
GEYSER         MOCLDY    47  31  53 SE14      30.06R
GRASS RANGE    FAIR      45  34  65 E7        30.06R
STANFORD       FAIR      45  31  58 E7        30.07R
$$

MTZ017>020-022>027-061-062-200500-
NORTHEAST MONTANA

CITY           SKY/WX    TMP DP  RH WIND       PRES   REMARKS
GLASGOW        FAIR      47  35  63 E21G29    30.16S
GLENDIVE       FAIR      50  30  46 SE14      30.21S
JORDAN           N/A     49  32  52 E13       30.12R
MALTA          CLEAR     48  37  66 E14       30.14R
SIDNEY         FAIR      44  36  73 E7        30.25S
WOLF POINT     FAIR      44  35  70 E13       30.22R
PLENTYWOOD       N/A     37  36  93 E10       30.27S WCI  30
POPLAR           N/A     43  36  75 MISG      30.23S
$$

MTZ028>42-056>058-200500-
SOUTHCENTRAL AND SOUTHEAST MONTANA

CITY           SKY/WX    TMP DP  RH WIND       PRES   REMARKS
BAKER          FAIR      43  35  73 E17       30.20S
BILLINGS       FAIR      51  33  50 NE9       30.02R
LIVINGSTON     CLOUDY    49  29  46 E9        30.02R
MILES CITY     FAIR      52  32  46 SE14      30.12R
BIG TIMBER     CLOUDY    48  28  46 N7        30.05R
FORSYTH          N/A     52  34  50 E12       30.09R
HARLOWTON      FAIR      45  29  52 E10       30.06R
LAUREL           N/A     52  32  46 NE10      30.02S
$$

REGIONAL REPORTS...DAKOTAS

CITY           SKY/WX    TMP DP  RH WIND       PRES   REMARKS
WILLISTON      FAIR      40  34  79 E7        30.29S
MINOT          FAIR      38  33  82 S3        30.33R
DICKINSON      FAIR      37  29  72 E8        30.25R WCI  31
BEACH          FAIR      46  28  49 SE14      30.25S
CROSBY         FAIR      36  36 100 SE8       30.31S WCI  29
TIOGA          FAIR      34  34 100 E9        30.31F WCI  26
WATFORD CITY   FAIR      37  36  93 E14       30.27F WCI  29
BISMARCK       FAIR      40  32  73 CALM      30.34R
GRAND FORKS    FAIR      33  33 100 S6        30.38R WCI  28
FARGO          FAIR      40  30  67 NE3       30.38S
BUFFALO SD       N/A     45  30  55 E18       30.14S
RAPID CITY     FAIR      44  31  60 SE17      30.18R
$$

REGIONAL REPORTS...WYOMING/IDAHO/WASHINGTON

CITY           SKY/WX    TMP DP  RH WIND       PRES   REMARKS
GILLETTE         N/A     50  31  48 SE21G29   30.06R
SHERIDAN       FAIR      49  31  49 E7        30.02S
BUFFALO WY     FAIR      50  28  42 SE5       30.06R
CODY           FAIR      47  25  42 W6        30.02S
YELLOWSTONE LA   N/A     36  18  48 VRB3      30.07R
IDAHO FALLS    FAIR      50  25  37 N15G25    29.89R
SALMON         MOCLDY    52  25  35 N8        30.03R
BOISE          FAIR      58  27  30 N10       29.95R
SPOKANE        FAIR      49  34  56 W8        30.13R
$$

REGIONAL REPORTS...ALBERTA

CITY           SKY/WX    TMP DP  RH WIND       PRES   REMARKS
CALGARY        PTCLDY    41  32  70 SW3       30.01S
EDMONTON       CLEAR     41  27  56 S9        29.97F
FORT MCMURRAY  CLEAR     46  23  39 S10       29.92S
HIGH LEVEL     MOCLDY    46  25  42 S5        29.70S
LETHBRIDGE     PTCLDY    41  32  70 S10       30.04S
LLOYDMINSTER   PTCLDY    39  32  75 SE12      30.05F WCI  32
MEDICINE HAT   MOCLDY    50  32  50 SE15G21   30.07S
MILK RIVER       N/A     39  34  81 S5          N/A
ONEFOUR          N/A     41  36  81 E13         N/A
PEACE RIVER    MOCLDY    39  25  56 SW7       29.87S
PINCHER CREEK  CLEAR     39  25  56 W8        30.05R
WATERTON GATE    N/A     39  21  48 S5          N/A
$$

REGIONAL REPORTS...SASKATCHEWAN

CITY           SKY/WX    TMP DP  RH WIND       PRES   REMARKS
CORONACH         N/A     37  32  81 E7          N/A
CYPRESS HILLS    N/A     39  30  70 SE12G21     N/A  WCI  32
ESTEVAN        PTCLDY    34  28  80 SE6       30.31S WCI  29
MOOSE JAW        N/A     34  30  86 SE8         N/A  WCI  27
PRINCE ALBERT  PTCLDY    34  28  80 VRB2      30.24F
REGINA         PTCLDY    37  30  75 SE13      30.28F WCI  29
ROCKGLEN         N/A     36  32  87 SE12        N/A  WCI  27
SASKATOON      PTCLDY    41  32  70 SE15      30.22F
SWIFT CURRENT  CLOUDY    39  32  75 SE16      30.17R WCI  30
VAL MARIE        N/A     41  34  75 SE18        N/A
$$




USA.gov is the U.S. government's official web portal to all federal, state and local government web resources and services.